User: anonymous   Login
Location: Unspecified
(55.6670°N, 0.0000°E)
Time: 01:31:33
(UTC+00:00)
Language:

Timation 1 Rocket - Orbit

View from above orbital plane
View from above orbital plane
View from above satellite
View from above satellite

Ground track
Ground track

The orbit is defined by the following mean orbital elements,

1 02825U          26087.85875076 +.00000000 +00000-0 +96106-4 0 00005
2 02825  69.9703 245.9954 0009797 274.2156  85.7830 13.97713501    08
Epoch (UTC): 28 March 2026 20:36:36
Eccentricity: 0.0009797
inclination: 69.9703°
perigee height: 895 km
apogee height: 909 km
right ascension of ascending node: 245.9954°
argument of perigee: 274.2156°
revolutions per day: 13.97713501
mean anomaly at epoch: 85.7830°

The dashed part of the orbit path shows where the satellite is in the earth's shadow,  

DLR